Weather History for Caldwell, ID

Change the Weather History Date:

Saturday, January 11, 2014

  Actual Average (KBOI) Record (KBOI)
Temperature  
Mean Temperature 44 °F 31 °F  
Max Temperature 53 °F 37 °F 58 °F (1959)
Min Temperature 35 °F 24 °F -12 °F (1890)
Degree Days  
Heating Degree Days 21 34  
Month to date heating degree days 384  
Since 1 July heating degree days 2699  
Cooling Degree Days 0 0  
Month to date cooling degree days 0  
Year to date cooling degree days 0  
Moisture  
Dew Point 28 °F    
Average Humidity 57    
Maximum Humidity 70    
Minimum Humidity 43    
Precipitation  
Precipitation 0.00 in 0.04 in 0.66 in (1979)
Month to date precipitation 0.50  
Year to date precipitation 0.50  
Snow  
Snow 0.00 in 0.20 in 2.60 in (1972)
Month to date snowfall 2.2  
Since 1 July snowfall 11.9  
Snow Depth -    
Sea Level Pressure  
Sea Level Pressure 29.86 in    
Wind  
Wind Speed 11 mph (South)    
Max Wind Speed 23 mph    
Max Gust Speed 41 mph    
Visibility 10 miles    
Events      
T = Trace of Precipitation, MM = Missing Value Source: NWS Daily Summary

Daily Weather History Graph

Daily Weather History Graph

Search for Another Location

Airport:

Trip Planner

Search our weather history database for the weather conditions in past years. The results will help you decide how hot, cold, wet, or windy it might be!

Date:

Astronomy

Jan. 11, 2014 Rise Set
Actual Time 8:18 AM MST 5:30 PM MST
Civil Twilight 7:46 AM MST 6:02 PM MST
Nautical Twilight 7:10 AM MST 6:38 PM MST
Astronomical Twilight 6:36 AM MST 7:13 PM MST
Moon 2:19 PM MST (1/11) 4:25 AM MST (1/11)
Length of Visible Light 10h 16m
Length of Day
9h 12m
Waxing Gibbous, 83% of the Moon is Illuminated
Jan 11
Waxing Gibbous
Jan 15
Full
Jan 23
Last Quarter
Jan 30
New
Feb 6
First Quarter

Hourly Weather History & Observations

Time (MST) Temp. Windchill Dew Point Humidity Pressure Visibility Wind Dir Wind Speed Gust Speed Precip Events Conditions
12:15 AM 37.4 °F 31.4 °F 26.6 °F 65% 30.09 in 10.0 mi SSE 8.1 mph - N/A   Overcast
12:35 AM 37.4 °F 30.3 °F 26.6 °F 65% 30.08 in 10.0 mi SSE 10.4 mph - N/A   Overcast
12:55 AM 37.4 °F 31.4 °F 26.6 °F 65% 30.07 in 10.0 mi ESE 8.1 mph - N/A   Overcast
1:15 AM 35.6 °F 28.6 °F 26.6 °F 70% 30.07 in 10.0 mi ESE 9.2 mph - N/A   Overcast
1:35 AM 35.6 °F 29.2 °F 26.6 °F 70% 30.07 in 10.0 mi SE 8.1 mph - N/A   Overcast
1:55 AM 37.4 °F 30.3 °F 26.6 °F 65% 30.05 in 10.0 mi SE 10.4 mph - N/A   Overcast
2:15 AM 37.4 °F 30.3 °F 26.6 °F 65% 30.04 in 10.0 mi SE 10.4 mph - N/A   Overcast
2:35 AM 37.4 °F 30.8 °F 26.6 °F 65% 30.05 in 10.0 mi SSE 9.2 mph - N/A   Overcast
2:55 AM 37.4 °F 30.3 °F 26.6 °F 65% 30.03 in 10.0 mi SSE 10.4 mph - N/A   Overcast
3:15 AM 37.4 °F 30.8 °F 26.6 °F 65% 30.04 in 10.0 mi SSE 9.2 mph - N/A   Overcast
3:35 AM 37.4 °F 30.8 °F 26.6 °F 65% 30.03 in 10.0 mi SSE 9.2 mph - N/A   Overcast
3:55 AM 37.4 °F 29.3 °F 26.6 °F 65% 30.01 in 10.0 mi SSE 12.7 mph 17.3 mph N/A   Overcast
4:15 AM 37.4 °F 28.9 °F 26.6 °F 65% 29.99 in 10.0 mi SSE 13.8 mph - N/A   Overcast
4:35 AM 37.4 °F 29.3 °F 28.4 °F 70% 29.98 in 10.0 mi SSE 12.7 mph - N/A   Overcast
4:55 AM 39.2 °F 33.0 °F 28.4 °F 65% 29.97 in 10.0 mi SSE 9.2 mph - N/A   Overcast
5:15 AM 39.2 °F 33.0 °F 28.4 °F 65% 29.96 in 10.0 mi South 9.2 mph - N/A   Overcast
5:35 AM 39.2 °F 34.2 °F 28.4 °F 65% 29.95 in 10.0 mi SE 6.9 mph - N/A   Mostly Cloudy
5:55 AM 39.2 °F 32.5 °F 28.4 °F 65% 29.93 in 10.0 mi SSE 10.4 mph - N/A   Partly Cloudy
6:15 AM 39.2 °F 31.2 °F 28.4 °F 65% 29.92 in 10.0 mi SE 13.8 mph - N/A   Partly Cloudy
6:35 AM 39.2 °F 33.6 °F 28.4 °F 65% 29.92 in 10.0 mi SSE 8.1 mph - N/A   Mostly Cloudy
6:55 AM 41.0 °F 36.4 °F 28.4 °F 61% 29.90 in 10.0 mi SE 6.9 mph - N/A   Mostly Cloudy
7:15 AM 42.8 °F 36.6 °F 28.4 °F 57% 29.89 in 10.0 mi SE 11.5 mph 17.3 mph N/A   Partly Cloudy
7:35 AM 42.8 °F 34.0 °F 28.4 °F 57% 29.87 in 10.0 mi SSE 20.7 mph - N/A   Clear
7:55 AM 41.0 °F 31.6 °F 28.4 °F 61% 29.85 in 10.0 mi SE 20.7 mph 25.3 mph N/A   Clear
8:15 AM 42.8 °F 33.8 °F 28.4 °F 57% 29.83 in 10.0 mi SE 21.9 mph 28.8 mph N/A   Partly Cloudy
8:35 AM 44.6 °F 36.1 °F 28.4 °F 53% 29.83 in 10.0 mi SE 21.9 mph 29.9 mph N/A   Partly Cloudy
8:55 AM 42.8 °F 34.0 °F 28.4 °F 57% 29.83 in 10.0 mi SE 20.7 mph 26.5 mph N/A   Partly Cloudy
9:15 AM 42.8 °F 34.8 °F 28.4 °F 57% 29.82 in 10.0 mi SE 17.3 mph - N/A   Mostly Cloudy
9:35 AM 42.8 °F 35.8 °F 28.4 °F 57% 29.83 in 10.0 mi SSE 13.8 mph - N/A   Overcast
9:55 AM 42.8 °F 34.5 °F 28.4 °F 57% 29.82 in 10.0 mi SE 18.4 mph 23.0 mph N/A   Overcast
10:15 AM 41.0 °F 31.4 °F 28.4 °F 61% 29.82 in 10.0 mi SE 21.9 mph 26.5 mph N/A   Overcast
10:35 AM 41.0 °F 32.5 °F 28.4 °F 61% 29.81 in 10.0 mi SE 17.3 mph - N/A   Overcast
10:55 AM 41.0 °F 32.8 °F 28.4 °F 61% 29.81 in 10.0 mi SE 16.1 mph 21.9 mph N/A   Overcast
11:15 AM 41.0 °F 38.0 °F 28.4 °F 61% 29.83 in 10.0 mi SSE 4.6 mph - N/A   Overcast
11:35 AM 41.0 °F 34.3 °F 28.4 °F 61% 29.81 in 10.0 mi ESE 11.5 mph - N/A   Mostly Cloudy
11:55 AM 42.8 °F 35.8 °F 30.2 °F 61% 29.80 in 10.0 mi South 13.8 mph 18.4 mph N/A   Clear
12:15 PM 51.8 °F - 33.8 °F 50% 29.78 in 10.0 mi SSW 12.7 mph 20.7 mph N/A   Clear
12:35 PM 50.0 °F - 33.8 °F 54% 29.77 in 10.0 mi South 6.9 mph - N/A   Mostly Cloudy
12:55 PM 50.0 °F - 33.8 °F 54% 29.76 in 10.0 mi SSW 8.1 mph - N/A   Overcast
1:15 PM 51.8 °F - 35.6 °F 54% 29.76 in 10.0 mi SW 8.1 mph - N/A   Mostly Cloudy
1:35 PM 53.6 °F - 35.6 °F 51% 29.75 in 10.0 mi West 10.4 mph - N/A   Mostly Cloudy
1:55 PM 51.8 °F - 33.8 °F 50% 29.75 in 10.0 mi West 13.8 mph - N/A   Overcast
2:15 PM 51.8 °F - 30.2 °F 44% 29.74 in 10.0 mi West 23.0 mph 29.9 mph N/A   Mostly Cloudy
2:35 PM 51.8 °F - 30.2 °F 44% 29.73 in 10.0 mi West 18.4 mph 31.1 mph N/A   Scattered Clouds
2:55 PM 53.6 °F - 32.0 °F 44% 29.74 in 10.0 mi West 18.4 mph - N/A   Partly Cloudy
3:15 PM 53.6 °F - 32.0 °F 44% 29.74 in 10.0 mi West 12.7 mph - N/A   Scattered Clouds
3:35 PM 50.0 °F - 30.2 °F 47% 29.75 in 10.0 mi WNW 21.9 mph 41.4 mph N/A   Mostly Cloudy
3:55 PM 44.6 °F 37.2 °F 32.0 °F 61% 29.76 in 10.0 mi WNW 17.3 mph 24.2 mph N/A   Mostly Cloudy
4:15 PM 44.6 °F 38.4 °F 33.8 °F 66% 29.76 in 10.0 mi NW 12.7 mph - N/A   Mostly Cloudy
4:35 PM 44.6 °F 40.7 °F 32.0 °F 61% 29.76 in 10.0 mi NNW 6.9 mph - N/A   Partly Cloudy
4:55 PM 44.6 °F 42.2 °F 32.0 °F 61% 29.76 in 10.0 mi North 4.6 mph - N/A   Partly Cloudy
5:15 PM 39.2 °F 34.2 °F 28.4 °F 65% 29.77 in 10.0 mi NE 6.9 mph - N/A   Clear
5:35 PM 39.2 °F 35.0 °F 28.4 °F 65% 29.76 in 10.0 mi ENE 5.8 mph - N/A   Clear
5:55 PM 41.0 °F 38.0 °F 28.4 °F 61% 29.77 in 10.0 mi SSW 4.6 mph - N/A   Partly Cloudy
6:15 PM 46.4 °F 39.8 °F 26.6 °F 46% 29.76 in 10.0 mi West 16.1 mph 23.0 mph N/A   Partly Cloudy
6:35 PM 44.6 °F 38.1 °F 26.6 °F 49% 29.76 in 10.0 mi WNW 13.8 mph - N/A   Clear
6:55 PM 42.8 °F 37.5 °F 26.6 °F 53% 29.77 in 10.0 mi West 9.2 mph - N/A   Scattered Clouds
7:15 PM 44.6 °F 37.8 °F 26.6 °F 49% 29.78 in 10.0 mi WSW 15.0 mph 20.7 mph N/A   Scattered Clouds
7:35 PM 46.4 °F 39.8 °F 24.8 °F 43% 29.79 in 10.0 mi West 16.1 mph 24.2 mph N/A   Scattered Clouds
7:55 PM 42.8 °F 37.5 °F 26.6 °F 53% 29.79 in 10.0 mi West 9.2 mph - N/A   Partly Cloudy
8:15 PM 42.8 °F 37.5 °F 24.8 °F 49% 29.79 in 10.0 mi West 9.2 mph - N/A   Clear
8:35 PM 41.0 °F 34.3 °F 24.8 °F 53% 29.79 in 10.0 mi WSW 11.5 mph - N/A   Clear
8:55 PM 39.2 °F 31.2 °F 24.8 °F 56% 29.79 in 10.0 mi WSW 13.8 mph 17.3 mph N/A   Clear
9:15 PM 42.8 °F 37.0 °F 24.8 °F 49% 29.81 in 10.0 mi West 10.4 mph 25.3 mph N/A   Clear
9:35 PM 42.8 °F 38.6 °F 24.8 °F 49% 29.84 in 10.0 mi West 6.9 mph 20.7 mph N/A   Clear
9:55 PM 42.8 °F 40.1 °F 24.8 °F 49% 29.85 in 10.0 mi SSW 4.6 mph - N/A   Clear
10:15 PM 42.8 °F 39.3 °F 24.8 °F 49% 29.86 in 10.0 mi West 5.8 mph - N/A   Scattered Clouds
10:35 PM 41.0 °F 35.8 °F 24.8 °F 53% 29.86 in 10.0 mi West 8.1 mph - N/A   Scattered Clouds
10:55 PM 39.2 °F 33.0 °F 24.8 °F 56% 29.87 in 10.0 mi West 9.2 mph - N/A   Scattered Clouds
11:15 PM 42.8 °F 35.1 °F 23.0 °F 46% 29.86 in 10.0 mi West 16.1 mph 23.0 mph N/A   Mostly Cloudy
11:35 PM 42.8 °F 35.1 °F 23.0 °F 46% 29.87 in 10.0 mi West 16.1 mph 20.7 mph N/A   Mostly Cloudy
11:55 PM 42.8 °F 34.0 °F 23.0 °F 46% 29.88 in 10.0 mi West 20.7 mph 33.4 mph N/A   Overcast